Location: ?????
(55.8833°N, 37.6500°E)
Time: 23:35:36
(UTC+00:00)

Cosmos 1844 Rocket - Pass Details

Date: 27 February 2020
Orbit: 823 x 846 km, 71.0° (Epoch: 05 April)

Event Time Altitude Azimuth Distance (km) Brightness Sun altitude
Rises 18:49:23 0° 322° (NW) 3,406 6.9 -31.6°
Reaches altitude 10° 18:52:05 10° 332° (NNW) 2,472 5.9 -31.9°
Enters shadow 18:56:08 31° 14° (NNE) 1,459 4.0 -32.4°
